Tracking 28096 objects as of 27-Sep-2023
HD Live streaming from Space Station
objects crossing your sky now

CZ-3A R/B

Track CZ-3A R/B now!


NORAD ID: 40368
Int'l Code: 2014-090B
Perigee: 325.7 km
Apogee: 36,551.6 km
Inclination: 24.8 °
Period: 648.2 minutes
Semi major axis: 24809 km
RCS: Unknown
Launch date: December 31, 2014
Source: People's Republic of China (PRC)
Launch site: Xichang Space Center, China (XSC)

Note: This is a ROCKET BODY
Your satellite tracking list
Your tracking list is empty




NASA's NSSDC Master Catalog

Two Line Element Set (TLE):
1 40368U 14090B   23270.16745514  .00003155  00000-0  32411-2 0  9999
2 40368  24.8333  43.7091 7300752 336.9531   2.3954  2.22163048 70013
Source of the keplerian elements: AFSPC